Weather History for Flippin, AR

Change the Weather History Date:

Wednesday, November 6, 2013

  Actual Average Record
Temperature  
Mean Temperature 50 °F -  
Max Temperature 60 °F 61 °F 82 °F (1999)
Min Temperature 41 °F 41 °F 26 °F (2010)
Degree Days  
Heating Degree Days 14    
Moisture  
Dew Point 41 °F    
Average Humidity 68    
Maximum Humidity 77    
Minimum Humidity 57    
Precipitation  
Precipitation 0.00 in - - ()
Sea Level Pressure  
Sea Level Pressure 30.13 in    
Wind  
Wind Speed 8 mph (WNW)    
Max Wind Speed 18 mph    
Max Gust Speed 28 mph    
Visibility 9 miles    
Events      
Averages and records for this station are not official NWS values.
T = Trace of Precipitation, MM = Missing Value Source: NWS Daily Summary

Daily Weather History Graph

Daily Weather History Graph

Search for Another Location

Airport:

Trip Planner

Search our weather history database for the weather conditions in past years. The results will help you decide how hot, cold, wet, or windy it might be!

Date:

Astronomy

Nov. 06, 2013 Rise Set
Actual Time 6:38 AM CST 5:08 PM CST
Civil Twilight 6:11 AM CST 5:35 PM CST
Nautical Twilight 5:40 AM CST 6:06 PM CST
Astronomical Twilight 5:10 AM CST 6:36 PM CST
Moon 9:51 AM CST (11/6) 8:16 PM CST (11/6)
Length of Visible Light 11h 24m
Length of Day
10h 30m
Waxing Crescent, 14% of the Moon is Illuminated
Nov 6
Waxing Crescent
Nov 9
First Quarter
Nov 17
Full
Nov 25
Last Quarter
Dec 2
New

Hourly Weather History & Observations

Time (CST) Temp. Windchill Dew Point Humidity Pressure Visibility Wind Dir Wind Speed Gust Speed Precip Events Conditions
12:15 AM 59.0 °F - 51.8 °F 77% 30.01 in 10.0 mi SE 3.5 mph - N/A   Overcast
12:35 AM 60.8 °F - 51.8 °F 72% 29.99 in 5.0 mi SE 4.6 mph - N/A   Overcast
12:55 AM 60.8 °F - 51.8 °F 72% 29.99 in 10.0 mi SSE 4.6 mph - N/A   Overcast
1:15 AM 60.8 °F - 51.8 °F 72% 29.99 in 4.0 mi South 3.5 mph - N/A   Overcast
1:35 AM 60.8 °F - 51.8 °F 72% 29.98 in 5.0 mi SSE 8.1 mph - N/A   Overcast
1:55 AM 60.8 °F - 51.8 °F 72% 29.97 in 8.0 mi South 8.1 mph - N/A   Overcast
2:15 AM 60.8 °F - 51.8 °F 72% 29.96 in 5.0 mi South 8.1 mph - N/A   Overcast
2:35 AM 60.8 °F - 51.8 °F 72% 29.96 in 8.0 mi SSE 5.8 mph - N/A   Overcast
2:55 AM 60.8 °F - 51.8 °F 72% 29.96 in 8.0 mi SSE 4.6 mph - N/A   Overcast
3:15 AM 60.8 °F - 51.8 °F 72% 29.96 in 6.0 mi Calm Calm - N/A   Overcast
3:35 AM 60.8 °F - 51.8 °F 72% 29.95 in 9.0 mi South 3.5 mph - N/A   Overcast
3:55 AM 60.8 °F - 51.8 °F 72% 29.95 in 10.0 mi South 6.9 mph - N/A   Overcast
4:15 AM 60.8 °F - 51.8 °F 72% 29.94 in 10.0 mi South 6.9 mph - N/A   Mostly Cloudy
4:35 AM 60.8 °F - 51.8 °F 72% 29.94 in 10.0 mi SSE 5.8 mph - N/A   Mostly Cloudy
4:55 AM 60.8 °F - 51.8 °F 72% 29.94 in 10.0 mi South 3.5 mph - N/A   Overcast
5:15 AM 60.8 °F - 51.8 °F 72% 29.93 in 9.0 mi SSE 4.6 mph - N/A   Overcast
5:35 AM 60.8 °F - 53.6 °F 77% 29.97 in 5.0 mi West 10.4 mph - N/A   Overcast
5:55 AM 60.8 °F - 53.6 °F 77% 29.98 in 9.0 mi West 4.6 mph - N/A   Overcast
6:15 AM 60.8 °F - 53.6 °F 77% 29.99 in 10.0 mi West 5.8 mph - N/A   Mostly Cloudy
6:35 AM 60.8 °F - 51.8 °F 72% 29.99 in 10.0 mi West 5.8 mph - N/A   Overcast
6:55 AM 60.8 °F - 53.6 °F 77% 29.99 in 10.0 mi South 3.5 mph - N/A   Overcast
7:15 AM 60.8 °F - 53.6 °F 77% 29.98 in 7.0 mi Calm Calm - N/A   Mostly Cloudy
7:35 AM 60.8 °F - 53.6 °F 77% 30.00 in 10.0 mi SW 4.6 mph - N/A   Mostly Cloudy
7:55 AM 60.8 °F - 53.6 °F 77% 30.01 in 10.0 mi SSW 3.5 mph - N/A   Overcast
8:15 AM 60.8 °F - 53.6 °F 77% 30.03 in 10.0 mi West 8.1 mph - N/A   Overcast
8:35 AM 60.8 °F - 53.6 °F 77% 30.03 in 10.0 mi West 5.8 mph - N/A   Overcast
8:55 AM 60.8 °F - 51.8 °F 72% 30.04 in 10.0 mi NW 17.3 mph 27.6 mph N/A   Overcast
9:15 AM 53.6 °F - 44.6 °F 72% 30.06 in 10.0 mi NW 16.1 mph 20.7 mph N/A   Overcast
9:35 AM 51.8 °F - 44.6 °F 76% 30.07 in 10.0 mi NW 16.1 mph 26.5 mph N/A   Overcast
9:55 AM 50.0 °F - 41.0 °F 71% 30.09 in 10.0 mi NW 13.8 mph 24.2 mph N/A   Overcast
10:15 AM 48.2 °F - 39.2 °F 71% 30.11 in 9.0 mi NW 8.1 mph 25.3 mph N/A   Overcast
10:35 AM 48.2 °F - 39.2 °F 71% 30.12 in 10.0 mi NW 13.8 mph 18.4 mph N/A   Overcast
10:55 AM 48.2 °F - 39.2 °F 71% 30.12 in 10.0 mi NW 12.7 mph 20.7 mph N/A   Overcast
11:15 AM 46.4 °F 41.5 °F 37.4 °F 71% 30.13 in 10.0 mi NW 10.4 mph 20.7 mph N/A   Overcast
11:35 AM 46.4 °F 40.4 °F 37.4 °F 71% 30.13 in 10.0 mi NW 13.8 mph 20.7 mph N/A   Overcast
11:55 AM 46.4 °F 41.5 °F 37.4 °F 71% 30.13 in 10.0 mi NW 10.4 mph 16.1 mph N/A   Overcast
12:15 PM 46.4 °F 41.1 °F 37.4 °F 71% 30.14 in 10.0 mi WNW 11.5 mph 20.7 mph N/A   Overcast
12:35 PM 46.4 °F 39.8 °F 37.4 °F 71% 30.13 in 10.0 mi WNW 16.1 mph 19.6 mph N/A   Overcast
12:55 PM 46.4 °F 40.7 °F 35.6 °F 66% 30.13 in 10.0 mi NW 12.7 mph 24.2 mph N/A   Overcast
1:15 PM 46.4 °F 40.1 °F 35.6 °F 66% 30.14 in 10.0 mi NW 15.0 mph 18.4 mph N/A   Overcast
1:35 PM 46.4 °F 41.9 °F 35.6 °F 66% 30.15 in 10.0 mi NW 9.2 mph - N/A   Overcast
1:55 PM 44.6 °F 37.4 °F 35.6 °F 71% 30.15 in 10.0 mi NW 16.1 mph 21.9 mph N/A   Overcast
2:15 PM 44.6 °F 36.9 °F 35.6 °F 71% 30.16 in 10.0 mi NW 18.4 mph 23.0 mph N/A   Overcast
2:35 PM 44.6 °F 38.4 °F 35.6 °F 71% 30.18 in 10.0 mi NW 12.7 mph 17.3 mph N/A   Overcast
2:55 PM 44.6 °F 38.4 °F 33.8 °F 66% 30.18 in 10.0 mi NW 12.7 mph 23.0 mph N/A   Overcast
3:15 PM 44.6 °F 38.1 °F 33.8 °F 66% 30.20 in 10.0 mi NW 13.8 mph 24.2 mph N/A   Overcast
3:35 PM 44.6 °F 38.1 °F 33.8 °F 66% 30.20 in 10.0 mi NW 13.8 mph 19.6 mph N/A   Overcast
3:55 PM 44.6 °F 38.1 °F 33.8 °F 66% 30.20 in 10.0 mi WNW 13.8 mph 18.4 mph N/A   Overcast
4:15 PM 44.6 °F 38.4 °F 33.8 °F 66% 30.21 in 10.0 mi NNW 12.7 mph - N/A   Overcast
4:35 PM 44.6 °F 38.4 °F 32.0 °F 61% 30.22 in 10.0 mi NNW 12.7 mph 18.4 mph N/A   Overcast
4:55 PM 44.6 °F 39.7 °F 32.0 °F 61% 30.22 in 10.0 mi NW 9.2 mph 20.7 mph N/A   Overcast
5:15 PM 44.6 °F 38.8 °F 32.0 °F 61% 30.22 in 10.0 mi NW 11.5 mph 16.1 mph N/A   Overcast
5:35 PM 44.6 °F 40.2 °F 32.0 °F 61% 30.24 in 10.0 mi NNW 8.1 mph - N/A   Overcast
5:55 PM 44.6 °F 39.2 °F 32.0 °F 61% 30.24 in 10.0 mi NNW 10.4 mph - N/A   Overcast
6:15 PM 44.6 °F 40.2 °F 32.0 °F 61% 30.24 in 10.0 mi NW 8.1 mph - N/A   Overcast
6:35 PM 44.6 °F 39.7 °F 32.0 °F 61% 30.26 in 10.0 mi NW 9.2 mph - N/A   Overcast
6:55 PM 44.6 °F 37.4 °F 30.2 °F 57% 30.27 in 10.0 mi NNW 16.1 mph 21.9 mph N/A   Overcast
7:15 PM 44.6 °F 38.8 °F 30.2 °F 57% 30.26 in 10.0 mi NNW 11.5 mph 19.6 mph N/A   Overcast
7:35 PM 44.6 °F 40.2 °F 30.2 °F 57% 30.27 in 10.0 mi NW 8.1 mph 19.6 mph N/A   Overcast
7:55 PM 44.6 °F 40.2 °F 30.2 °F 57% 30.28 in 10.0 mi NNW 8.1 mph - N/A   Overcast
8:15 PM 42.8 °F 36.2 °F 28.4 °F 57% 30.28 in 10.0 mi NNW 12.7 mph 18.4 mph N/A   Overcast
8:35 PM 42.8 °F 38.0 °F 28.4 °F 57% 30.28 in 10.0 mi NNW 8.1 mph 19.6 mph N/A   Overcast
8:55 PM 42.8 °F 37.5 °F 28.4 °F 57% 30.29 in 10.0 mi NNW 9.2 mph 20.7 mph N/A   Overcast
9:15 PM 42.8 °F 38.6 °F 28.4 °F 57% 30.31 in 10.0 mi NNW 6.9 mph - N/A   Overcast
9:35 PM 42.8 °F 38.0 °F 28.4 °F 57% 30.31 in 10.0 mi NNW 8.1 mph - N/A   Overcast
9:55 PM 42.8 °F 39.3 °F 28.4 °F 57% 30.32 in 10.0 mi NW 5.8 mph - N/A   Overcast
10:15 PM 42.8 °F 36.6 °F 28.4 °F 57% 30.33 in 10.0 mi North 11.5 mph 16.1 mph N/A   Overcast
10:35 PM 42.8 °F 37.5 °F 28.4 °F 57% 30.33 in 10.0 mi North 9.2 mph - N/A   Overcast
10:55 PM 42.8 °F 40.1 °F 28.4 °F 57% 30.32 in 10.0 mi North 4.6 mph - N/A   Overcast
11:15 PM 42.8 °F 39.3 °F 28.4 °F 57% 30.32 in 10.0 mi North 5.8 mph - N/A   Mostly Cloudy
11:35 PM 41.0 °F 38.0 °F 28.4 °F 61% 30.32 in 10.0 mi NNW 4.6 mph - N/A   Mostly Cloudy
11:55 PM 41.0 °F 37.1 °F 28.4 °F 61% 30.33 in 10.0 mi NW 5.8 mph - N/A   Mostly Cloudy